Details From KAMA - Rick Husband Amarillo Intl
To PATK - Talkeetna
Flight Number -
Tags Decoded
Created
Modified
Stats Distance 2,420 nm / 4,481 km
Max Altitude 0 ft / 0 m
Waypoints 2
Social Downloads 0
Likes 0
Share VATSIM

Download

Looking for another format? Having issues loading an existing format? Contact us
Advertisement - Login to hide

Notes

Decoded

Route

KAMA PATK

ID Type Via Altitude Latitude Longitude Leg Dist Tot Dist Heading (true) Name
O KAMA APT - 0 ft / 0 m 35.22969˚ -101.69689˚ - 0 nm - -
O PATK APT - 0 ft / 0 m 62.32478˚ -150.08901˚ 2419 nm 2419 nm 328° / 289° TALKEETNA

Altitude Profile

Advertisement - Login to hide

Weather


0- 5 10 15 20 25 30 35+ Temperature / ° C

Clouds and Precipitation
Forecast for 2018-05-26 06:00 UTC. Updated an hour ago

Ground ~20,000 ft ~40,000 ft Winds

KAMA

Details ICAO KAMA (AMA)
Name Rick Husband Amarillo Intl
Region United States
Timezone America/Chicago (UTC-5.0)
Stats Elevation 3,607 ft / 1,099 m (AMSL)
Location 35.219850° -101.702200°
Runways 2
Magnetic Variation 6.115° E

METAR

KAMA 260553Z AUTO 13014KT 10SM CLR 20/11 A2996 RMK AO2 SLP086 T02000106 10350 20200 403670194 51012

Decode

TAF

TAF KAMA 260520Z 2606/2706 15008KT P6SM SKC FM261800 15015G24KT P6SM BKN250 FM270100 13014KT P6SM BKN250

Decode

Departure Runways

ID Width Length Bearing (true) Bearing (mag) Surface Threshold Offset Overrun Length
04 200 ft / 61 m 13,502 ft / 4,115 m 45.85° 39.74° Concrete 0 ft / 0 m 1,001 ft / 305 m
13 151 ft / 46 m 7,904 ft / 2,409 m 137.58° 131.47° Concrete 0 ft / 0 m 1,250 ft / 381 m
22 200 ft / 61 m 13,502 ft / 4,115 m 225.87° 219.76° Concrete 0 ft / 0 m 1,001 ft / 305 m
31 151 ft / 46 m 7,904 ft / 2,409 m 317.60° 311.49° Concrete 0 ft / 0 m 0 ft / 0 m

PATK

Details ICAO PATK (TKA)
Name TALKEETNA
Region USA (Alaska)
Timezone America/Anchorage (UTC-8.0)
Stats Elevation 358 ft / 109 m (AMSL)
Location 62.320512° -150.093685°
Runways 1
Magnetic Variation 16.195° E

METAR

PATK 260553Z AUTO 00000KT 10SM CLR 12/02 A2960 RMK SLP027 60000 T01170017 10167 20117 55001 TSNO VIA AUTODIAL

Decode

TAF

TAF PATK 260531Z 2606/2706 VRB06KT P6SM SCT100 BKN200 FM262100 VRB03KT P6SM VCSH BKN060 FM270000 VRB03KT P6SM VCTS SCT045CB BKN060

Decode

Destination Runways

ID Width Length Bearing (true) Bearing (mag) Surface Threshold Offset Overrun Length
18 75 ft / 23 m 3,503 ft / 1,068 m 207.01° 190.82° Asphalt 0 ft / 0 m 0 ft / 0 m
36 75 ft / 23 m 3,503 ft / 1,068 m 27.01° 10.82° Asphalt 0 ft / 0 m 0 ft / 0 m